Regional Weather Roundup
Issued by NWS

Home | Current Version | Previous Version | Graphics & Text | Print | Product List | Glossary On
Versions: 1 2 3 4 5 6 7 8 9 10 11 12 13 14 15 16 17 18 19 20 21 22 23 24 25 26 27 28 29 30 31 32 33 34 35 36 37 38 39 40 41 42 43 44 45 46 47 48 49 50
000
ASUS43 KMPX 232201
RWRMN
WEATHER ROUNDUP FOR MINNESOTA
NATIONAL WEATHER SERVICE TWIN CITIES/CHANHASSEN MN
500 PM CDT THU MAR 23 2017


NOTE: "FAIR" INDICATES FEW OR NO CLOUDS BELOW 12,000 FEET WITH NO
SIGNIFICANT WEATHER AND/OR OBSTRUCTIONS TO VISIBILITY. N/A MEANS
CURRENT SKY AND/OR WEATHER CONDITIONS ARE NOT AVAILABLE.

MNZ060>063-068>070-232300-
   Twin Cities Metro

CITY           SKY/WX    TMP DP  RH WIND       PRES   REMARKS
TWIN CITIES    DRIZZLE   38  31  76 SE17G25   29.88F
ST PAUL        CLOUDY    40  31  70 SE18      29.89F
CRYSTAL        CLOUDY    39  30  70 SE16G23   29.86F
BLAINE         CLOUDY    41  30  65 SE16G26   29.87F
LAKEVILLE      CLOUDY    36  34  93 SE13      29.89F
EDEN PRAIRIE   CLOUDY    38  32  79 SE17      29.87F HAZE
SOUTH ST PAUL  CLOUDY    40  31  69 SE8       29.89F
LAKE ELMO      CLOUDY    39  30  70 SE9       29.89F
$$
MNZ001>005-007-008-013>017-022>024-027-028-232300-
   Northwest Minnesota

CITY           SKY/WX    TMP DP  RH WIND       PRES   REMARKS
BEMIDJI        CLOUDY    36  32  88 SE6       29.82F
HALLOCK        CLOUDY    36  34  93 S7        29.78F
ROSEAU         CLOUDY    37  34  87 S8        29.79F
WARROAD        CLOUDY    37  34  87 S5        29.80F
THIEF RVR FALL LGT RAIN N/A N/A N/A SE13      29.76F
CROOKSTON      CLOUDY    36  36 100 S10       29.76F THUNDER
FOSSTON        TSTM      37  36  93 E3        29.77F
DETROIT LAKES  TSTM      34  34 100 SE10      29.78F WCI  26
MOORHEAD       TSTM      36  34  93 SE8       29.80R
PARK RAPIDS    CLOUDY    37  27  67 S12       29.80F
MAHNOMEN       TSTM      34  32  90 SE8       29.77F WCI  27
$$
MNZ006-009>011-018-025>026-232300-
   North Central Minnesota

CITY           SKY/WX    TMP DP  RH WIND       PRES   REMARKS
BAUDETTE       CLOUDY    35  32  88 S8        29.82S WCI  29
FLAG ISLAND    CLOUDY    34  30  86 S13       29.79S WCI  25
INTL FALLS     LGT RAIN  34  31  88 VRB6      29.84F WCI  29
WASKISH        LGT RAIN  34  34 100 SE7       29.83F WCI  28
BIG FORK       MIX PCPN  34  30  86 CALM      29.85F
LONGVILLE      LGT RAIN  36  27  69 SE6       29.83F
GRAND RAPIDS   LGT RAIN  36  27  69 SE6       29.87F
CRANE LAKE     MIX PCPN  32  30  93 S5        29.90F WCI  27
ORR            LGT RAIN  32  28  86 CALM      29.85F
COOK           MIX PCPN  32  30  93 SE3       29.89F
WALKER         CLOUDY    35  30  83 CALM      29.82F
$$
MNZ012-019>021-037-232300-
   Northeast Minnesota

CITY           SKY/WX    TMP DP  RH WIND       PRES   REMARKS
DULUTH         CLOUDY    34  28  79 SE6       29.90F WCI  29
ELY            LGT SNOW  32  30  93 S7        29.90S WCI  26
HIBBING        CLOUDY    32  30  92 SE6       29.88F WCI  26
EVELETH        PTSUNNY   32  29  89 SE3       29.90F
DULUTH HARBOR  CLOUDY    37  28  70 CALM      29.93F
TWO HARBORS    CLOUDY    36  30  80 CALM      29.93S
SILVER BAY     DRIZZLE   34  30  86 CALM      29.92S
GRAND MARAIS     N/A     34  30  85 S3        29.97F
G MARAIS ARPRT LGT SNOW  28  23  80 S6        29.91F WCI  22
$$
MNZ029>031-032-039>041-046>048-054>057-064-232300-
   West Central Minnesota

CITY           SKY/WX    TMP DP  RH WIND       PRES   REMARKS
FERGUS FALLS   CLOUDY    36  36 100 SE10      29.83F THUNDER FOG
WHEATON        CLOUDY    37  36  93 SE12      29.81R FOG
MORRIS         CLOUDY    37  36  93 SE16      29.78F
ALEXANDRIA     CLOUDY    34  33  96 SE12      29.82R FOG     WCI  25
ELBOW LAKE     CLOUDY    35  34  96 E8        29.81S WCI  28
WADENA         TSTM      34  30  86 SE7       29.81F WCI  28
GLENWOOD       CLOUDY    34  34 100 SE10      29.83R FOG     WCI  26
APPLETON       MIX PCPN  37  36  93 SE9       29.80F
BENSON         LGT RAIN  39  34  81 S14       29.83F
ORTONVILLE     LGT RAIN  36  34  93 SE14      29.76F
MADISON        DRIZZLE   39  39 100 SE10      29.77F
WILLMAR        LGT RAIN  37  36  93 SE15      29.83F
$$
MNZ033>034-036-042>043-049>051-058-059-232300-
   Central Minnesota

CITY           SKY/WX    TMP DP  RH WIND       PRES   REMARKS
ST CLOUD       CLOUDY    37  32  82 SE7       29.85S
SAUK CENTRE    CLOUDY    34  31  90 SE10      29.84S WCI  26
PAYNESVILLE    HVY RAIN  35  35 100 E6        29.86R WCI  30
AITKIN         CLOUDY    39  25  56 SE8       29.84F
PINE RIVER     CLOUDY    37  28  70 S9        29.85F
BRAINERD       CLOUDY    38  25  59 SE8       29.84F
STAPLES        DRIZZLE   36  30  80 S7        29.83S
LONG PRAIRIE   MIX PCPN  34  30  86 E12       29.84R WCI  25
LITTLE FALLS   TSTM      36  30  80 SE7       29.86R
LITCHFIELD     DRIZZLE   36  36 100 SE8       29.86F
BUFFALO        CLOUDY    37  32  83 SE9G17    29.87S
MAPLE LAKE     CLOUDY    37  33  86 SE9G17    29.87S
HUTCHINSON     LGT RAIN  36  34  93 SE10      29.87R
$$
MNZ037-044-045-052-053-232300-
   East Central Minnesota

CITY           SKY/WX    TMP DP  RH WIND       PRES   REMARKS
PRINCETON      CLOUDY    37  34  87 SE6       29.88S
MORA           CLOUDY    36  30  80 SE5       29.89F
CAMBRIDGE      CLOUDY    39  30  70 SE5       29.87S
RUSH CITY      CLOUDY    36  31  81 CALM      29.90R
MOOSE LAKE     CLOUDY    36  30  80 CALM      29.88R
HINCKLEY       LGT RAIN  36  30  80 SE6       29.91R
CLOQUET        CLOUDY    36  25  64 S7        29.91R
MCGREGOR       CLOUDY    36  30  80 SE8       29.86F
$$
MNZ071>073-080-081-089-090-097-098-232300-
   Southwest Minnesota

CITY           SKY/WX    TMP DP  RH WIND       PRES   REMARKS
MONTEVIDEO     DRIZZLE   37  37 100 S13       29.81F
GRANITE FALLS  LGT RAIN  39  37  93 SE14G21   29.79F
CANBY          CLOUDY    40  39  97 E7        29.76F FOG
MARSHALL       LGT RAIN  38  37  97 SE12      29.77F
REDWOOD FALLS  LGT RAIN  38  34  85 SE13      29.81F FOG
OLIVIA         CLOUDY    36  34  93 SE10      29.80F FOG
PIPESTONE      CLOUDY    43  36  75 SE10      29.69F
WINDOM         CLOUDY    41  34  75 SE13      29.78R
WORTHINGTON    CLOUDY    43  35  73 SE15G22   29.72F
JACKSON        CLOUDY    41  32  70 SE15      29.77S
TRACY          CLOUDY    40  37  92 SE9       29.76F
SLAYTON        CLOUDY    39  36  88 SE12      29.74F
$$
MNZ065>067-074>077-082>085-091>093-232300-
   South Central Minnesota

CITY           SKY/WX    TMP DP  RH WIND       PRES   REMARKS
MANKATO        MIX PCPN  37  34  89 E15       29.77F
NEW ULM        CLOUDY    39  32  75 SE13      29.81F
ST JAMES       CLOUDY    37  34  87 SE15G21   29.81F
FAIRMONT       CLOUDY    40  34  79 SE18      29.76F
GLENCOE        RAIN      37  34  89 SE9G18    29.86R
FARIBAULT      RAIN      37  34  87 SE13      29.90F
OWATONNA       LGT RAIN  37  34  87 SE14      29.89F
WASECA         RAIN      36  34  93 E17       29.84F
ALBERT LEA     CLOUDY    36  36 100 SE13      29.84F
$$
MNZ078>079-086>088-094>096-232300-
   Southeast Minnesota

CITY           SKY/WX    TMP DP  RH WIND       PRES   REMARKS
ROCHESTER      TSTM      37  34  89 S12       29.93R FOG
RED WING       CLOUDY    43  28  56 S12G18    29.92F
STANTON        CLOUDY    40  32  74 SE8       29.89F
DODGE CENTER   LGT RAIN  36  34  93 S15       29.92R
WINONA         CLOUDY    41  30  65 S5        29.96F
AUSTIN         CLOUDY    37  36  93 S8        29.92R
PRESTON        TSTM      37  33  86 SE5       29.95R
$$
ABBREVIATIONS USED IN REMARKS
   TC - TEMPERATURES IN CELSIUS
  WCI - WIND CHILL INDEX
   HX - HEAT INDEX
  VSB - VISIBILITY
$$



USA.gov is the U.S. government's official web portal to all federal, state and local government web resources and services.